| time (UTC) | temp F | wind direction | speed knots | gust knots | rain 1hr in | rain 24hr in | rain mn in | humidity % | barometer mb |
| 20260902130356 | 58 | 97 | 9.6 | 15.6 | 0.00 | 0.00 | 0.00 | 85 | 1007.3 |
| 20260902125850 | 58 | 193 | 2.6 | 12.2 | 0.00 | 0.00 | 0.00 | 86 | 1007.9 |
| 20260902125347 | 58 | 158 | 7.8 | 13.9 | 0.00 | 0.00 | 0.00 | 86 | 1007.6 |
| 20260902124843 | 58 | 159 | 8.7 | 13.0 | 0.00 | 0.00 | 0.00 | 85 | 1007.6 |
| 20260902124339 | 58 | 170 | 7.8 | 15.6 | 0.00 | 0.00 | 0.00 | 85 | 1007.6 |
| 20260902123833 | 58 | 49 | 7.8 | 12.2 | 0.00 | 0.00 | 0.00 | 85 | 1007.6 |
| 20260902123330 | 58 | 165 | 6.1 | 8.7 | 0.00 | 0.00 | 0.00 | 84 | 1007.6 |
| 20260902122828 | 58 | 180 | 7.0 | 9.6 | 0.00 | 0.00 | 0.00 | 83 | 1007.6 |
| 20260902122325 | 58 | 177 | 5.2 | 13.0 | 0.00 | 0.00 | 0.00 | 82 | 1007.9 |
| 20260902121824 | 59 | 182 | 2.6 | 7.0 | 0.00 | 0.00 | 0.00 | 82 | 1007.9 |
| 20260902121319 | 59 | 144 | 3.5 | 5.2 | 0.00 | 0.00 | 0.00 | 82 | 1007.9 |
| 20260902120815 | 58 | 101 | 6.1 | 12.2 | 0.00 | 0.00 | 0.00 | 82 | 1007.9 |
| 20260902120311 | 58 | 155 | 5.2 | 11.3 | 0.00 | 0.00 | 0.00 | 84 | 1007.6 |
| 20260902115805 | 57 | 116 | 4.3 | 6.1 | 0.00 | 0.00 | 0.00 | 84 | 1007.9 |
| 20260902115301 | 58 | 174 | 2.6 | 9.6 | 0.00 | 0.00 | 0.00 | 84 | 1007.9 |
| 20260902114757 | 58 | 121 | 3.5 | 7.0 | 0.00 | 0.00 | 0.00 | 84 | 1007.9 |
| 20260902114253 | 58 | 155 | 5.2 | 7.0 | 0.00 | 0.00 | 0.00 | 83 | 1007.9 |
| 20260902113747 | 58 | 182 | 5.2 | 8.7 | 0.00 | 0.00 | 0.00 | 82 | 1007.9 |
| 20260902113243 | 58 | 83 | 6.1 | 8.7 | 0.00 | 0.00 | 0.00 | 82 | 1008.3 |
| 20260902112742 | 58 | 200 | 5.2 | 7.0 | 0.00 | 0.00 | 0.00 | 82 | 1008.3 |
| 20260902112239 | 58 | 117 | 2.6 | 8.7 | 0.00 | 0.00 | 0.00 | 82 | 1008.3 |
| 20260902111734 | 58 | 164 | 2.6 | 8.7 | 0.00 | 0.00 | 0.00 | 82 | 1008.6 |
| 20260902111231 | 58 | 210 | 3.5 | 6.1 | 0.00 | 0.00 | 0.00 | 82 | 1008.6 |
| 20260902110726 | 58 | 179 | 2.6 | 6.1 | 0.00 | 0.00 | 0.00 | 82 | 1008.6 |
| 20260902110222 | 58 | 151 | 2.6 | 7.8 | 0.00 | 0.00 | 0.00 | 81 | 1009.0 |
| 20260902105721 | 58 | 78 | 3.5 | 7.0 | 0.00 | 0.00 | 0.00 | 81 | 1009.0 |
| 20260902105217 | 58 | 114 | 3.5 | 3.5 | 0.00 | 0.00 | 0.00 | 82 | 1008.6 |
| 20260902104712 | 58 | 160 | 2.6 | 7.8 | 0.00 | 0.00 | 0.00 | 81 | 1009.0 |
| 20260902104208 | 58 | 112 | 0.9 | 7.0 | 0.00 | 0.00 | 0.00 | 81 | 1009.0 |
| 20260902103707 | 59 | 137 | 5.2 | 6.1 | 0.00 | 0.00 | 0.00 | 81 | 1009.0 |
| 20260902103202 | 58 | 163 | 1.7 | 5.2 | 0.00 | 0.00 | 0.00 | 80 | 1009.0 |
| 20260902102658 | 59 | 124 | 5.2 | 7.8 | 0.00 | 0.00 | 0.00 | 80 | 1009.0 |
| 20260902102155 | 59 | 122 | 5.2 | 7.8 | 0.00 | 0.00 | 0.00 | 80 | 1009.0 |
| 20260902101650 | 59 | 151 | 4.3 | 6.1 | 0.00 | 0.00 | 0.00 | 80 | 1009.0 |
| 20260902101150 | 59 | 135 | 2.6 | 5.2 | 0.00 | 0.00 | 0.00 | 79 | 1009.0 |
| 20260902100644 | 59 | 106 | 2.6 | 6.1 | 0.00 | 0.00 | 0.00 | 78 | 1009.0 |
| 20260902100139 | 59 | 133 | 4.3 | 6.1 | 0.00 | 0.00 | 0.00 | 79 | 1008.6 |
| 20260902095638 | 58 | 113 | 1.7 | 5.2 | 0.00 | 0.00 | 0.00 | 80 | 1009.0 |
| 20260902095138 | 58 | 83 | 3.5 | 5.2 | 0.00 | 0.00 | 0.00 | 81 | 1009.0 |
| 20260902094633 | 57 | 134 | 1.7 | 2.6 | 0.00 | 0.00 | 0.00 | 82 | 1009.0 |
| 20260902094129 | 57 | 135 | 0.0 | 0.0 | 0.00 | 0.00 | 0.00 | 82 | 1009.0 |
| 20260902093623 | 57 | 117 | 1.7 | 2.6 | 0.00 | 0.00 | 0.00 | 82 | 1009.3 |
| 20260902093112 | 57 | 106 | 0.9 | 2.6 | 0.00 | 0.00 | 0.00 | 82 | 1009.3 |
| 20260902092607 | 57 | 152 | 1.7 | 3.5 | 0.00 | 0.00 | 0.00 | 83 | 1009.0 |
| 20260902092102 | 57 | 126 | 1.7 | 3.5 | 0.00 | 0.00 | 0.00 | 84 | 1009.3 |
| 20260902091557 | 57 | 135 | 0.9 | 2.6 | 0.00 | 0.00 | 0.00 | 84 | 1009.3 |
| 20260902091053 | 58 | 124 | 1.7 | 3.5 | 0.00 | 0.00 | 0.00 | 84 | 1009.3 |
| 20260902090549 | 58 | 157 | 2.6 | 2.6 | 0.00 | 0.00 | 0.00 | 84 | 1009.6 |
| 20260902090048 | 58 | 174 | 0.9 | 1.7 | 0.00 | 0.00 | 0.00 | 83 | 1009.6 |
| 20260902085548 | 58 | 176 | 1.7 | 6.1 | 0.00 | 0.00 | 0.00 | 83 | 1009.6 |
| 20260902085043 | 58 | 112 | 0.9 | 5.2 | 0.00 | 0.00 | 0.00 | 83 | 1009.6 |
| 20260902084539 | 58 | 118 | 0.0 | 2.6 | 0.00 | 0.00 | 0.00 | 84 | 1009.6 |
| 20260902084034 | 57 | 184 | 2.6 | 7.0 | 0.00 | 0.00 | 0.00 | 85 | 1009.6 |
| 20260902083524 | 57 | 121 | 2.6 | 7.0 | 0.00 | 0.00 | 0.00 | 88 | 1010.0 |
| 20260902083019 | 56 | 184 | 2.6 | 5.2 | 0.00 | 0.00 | 0.00 | 88 | 1009.6 |
| 20260902082515 | 56 | 101 | 0.9 | 2.6 | 0.00 | 0.00 | 0.00 | 89 | 1010.0 |
| 20260902082011 | 56 | 116 | 1.7 | 3.5 | 0.00 | 0.00 | 0.00 | 89 | 1010.0 |
| 20260902081507 | 56 | 118 | 1.7 | 3.5 | 0.00 | 0.00 | 0.00 | 89 | 1010.0 |
| 20260902081001 | 56 | 164 | 1.7 | 2.6 | 0.00 | 0.00 | 0.00 | 89 | 1010.0 |
| 20260902080457 | 57 | 184 | 3.5 | 5.2 | 0.00 | 0.00 | 0.00 | 89 | 1010.3 |
| 20260902075957 | 57 | 184 | 0.9 | 3.5 | 0.00 | 0.00 | 0.00 | 89 | 1010.0 |
| 20260902075453 | 57 | 162 | 0.9 | 1.7 | 0.00 | 0.00 | 0.00 | 89 | 1010.3 |
| 20260902074949 | 57 | 198 | 1.7 | 2.6 | 0.00 | 0.00 | 0.00 | 89 | 1010.3 |
| 20260902074444 | 57 | 133 | 1.7 | 1.7 | 0.00 | 0.00 | 0.00 | 89 | 1010.3 |
| 20260902073938 | 57 | 159 | 2.6 | 5.2 | 0.00 | 0.00 | 0.00 | 88 | 1010.3 |
| 20260902073434 | 57 | 161 | 1.7 | 2.6 | 0.00 | 0.00 | 0.00 | 88 | 1010.3 |
| 20260902072931 | 57 | 153 | 1.7 | 6.1 | 0.00 | 0.00 | 0.00 | 88 | 1010.3 |
| 20260902072426 | 57 | 155 | 3.5 | 5.2 | 0.00 | 0.00 | 0.00 | 88 | 1010.3 |
| 20260902071922 | 57 | 171 | 1.7 | 3.5 | 0.00 | 0.00 | 0.00 | 88 | 1010.3 |
| 20260902071421 | 57 | 130 | 2.6 | 2.6 | 0.00 | 0.00 | 0.00 | 88 | 1010.3 |
| 20260902070918 | 57 | 137 | 1.7 | 2.6 | 0.00 | 0.00 | 0.00 | 88 | 1010.7 |
| 20260902070414 | 57 | 124 | 0.0 | 3.5 | 0.00 | 0.00 | 0.00 | 88 | 1010.3 |
| 20260902065912 | 57 | 91 | 1.7 | 2.6 | 0.00 | 0.00 | 0.00 | 88 | 1010.7 |
| 20260902065408 | 57 | 134 | 1.7 | 2.6 | 0.00 | 0.00 | 0.00 | 88 | 1010.3 |
| 20260902064903 | 57 | 192 | 1.7 | 3.5 | 0.00 | 0.00 | 0.00 | 88 | 1010.7 |
| 20260902064359 | 57 | 114 | 1.7 | 2.6 | 0.00 | 0.00 | 0.00 | 88 | 1010.7 |
| 20260902063854 | 57 | 168 | 1.7 | 5.2 | 0.00 | 0.00 | 0.00 | 88 | 1010.7 |
| 20260902063348 | 57 | 175 | 5.2 | 6.1 | 0.00 | 0.00 | 0.00 | 88 | 1010.7 |
| 20260902062842 | 57 | 152 | 2.6 | 7.0 | 0.00 | 0.00 | 0.00 | 87 | 1010.7 |
| 20260902062336 | 57 | 120 | 3.5 | 3.5 | 0.00 | 0.00 | 0.00 | 87 | 1010.7 |
| 20260902061831 | 57 | 152 | 1.7 | 3.5 | 0.00 | 0.00 | 0.00 | 87 | 1010.7 |
| 20260902061326 | 57 | 161 | 3.5 | 5.2 | 0.00 | 0.00 | 0.00 | 87 | 1010.7 |
| 20260902060823 | 57 | 99 | 1.7 | 2.6 | 0.00 | 0.00 | 0.00 | 87 | 1010.7 |
| 20260902060318 | 57 | 148 | 0.9 | 1.7 | 0.00 | 0.00 | 0.00 | 86 | 1011.0 |
| 20260902055813 | 58 | 160 | 1.7 | 1.7 | 0.00 | 0.00 | 0.00 | 85 | 1010.7 |
| 20260902055309 | 58 | 168 | 0.9 | 1.7 | 0.00 | 0.00 | 0.00 | 85 | 1010.7 |
| 20260902054804 | 58 | 156 | 1.7 | 1.7 | 0.00 | 0.00 | 0.00 | 84 | 1011.0 |
| 20260902054300 | 59 | 117 | 0.9 | 3.5 | 0.00 | 0.00 | 0.00 | 84 | 1011.0 |
| 20260902053755 | 59 | 124 | 0.0 | 1.7 | 0.00 | 0.00 | 0.00 | 83 | 1011.0 |
| 20260902053254 | 59 | 172 | 2.6 | 2.6 | 0.00 | 0.00 | 0.00 | 82 | 1011.0 |
| 20260902052748 | 60 | 102 | 1.7 | 1.7 | 0.00 | 0.00 | 0.00 | 82 | 1011.3 |
| 20260902052243 | 60 | 156 | 1.7 | 2.6 | 0.00 | 0.00 | 0.00 | 82 | 1011.3 |
| 20260902051738 | 60 | 114 | 0.9 | 2.6 | 0.00 | 0.00 | 0.00 | 82 | 1011.3 |
| 20260902051232 | 59 | 159 | 0.9 | 0.9 | 0.00 | 0.00 | 0.00 | 83 | 1011.3 |
| 20260902050727 | 59 | 159 | 0.0 | 0.9 | 0.00 | 0.00 | 0.00 | 83 | 1011.3 |
| 20260902050223 | 59 | 189 | 0.0 | 1.7 | 0.00 | 0.00 | 0.00 | 84 | 1011.3 |
| 20260902045723 | 59 | 191 | 0.0 | 0.0 | 0.00 | 0.00 | 0.00 | 84 | 1011.3 |
| 20260902045219 | 59 | 191 | 0.0 | 0.9 | 0.00 | 0.00 | 0.00 | 84 | 1011.3 |
| 20260902044714 | 59 | 191 | 0.0 | 0.0 | 0.00 | 0.00 | 0.00 | 83 | 1011.3 |
| 20260902044209 | 59 | 191 | 0.0 | 0.0 | 0.00 | 0.00 | 0.00 | 83 | 1011.3 |
| 20260902043704 | 59 | 191 | 0.0 | 0.0 | 0.00 | 0.00 | 0.00 | 83 | 1011.3 |
| 20260902043200 | 59 | 191 | 0.0 | 0.9 | 0.00 | 0.00 | 0.00 | 82 | 1011.3 |
| 20260902042659 | 59 | 191 | 0.0 | 0.0 | 0.00 | 0.00 | 0.00 | 82 | 1011.3 |
| 20260902042154 | 59 | 191 | 0.0 | 0.0 | 0.00 | 0.00 | 0.00 | 81 | 1011.3 |
| 20260902041654 | 60 | 191 | 0.0 | 0.9 | 0.00 | 0.00 | 0.00 | 81 | 1011.3 |
| 20260902041148 | 60 | 191 | 0.0 | 0.0 | 0.00 | 0.00 | 0.00 | 80 | 1011.3 |
| 20260902040642 | 59 | 191 | 0.0 | 0.9 | 0.00 | 0.00 | 0.00 | 81 | 1011.3 |
| 20260902040138 | 59 | 198 | 0.0 | 0.0 | 0.00 | 0.00 | 0.00 | 82 | 1011.3 |
| 20260902035636 | 59 | 198 | 0.0 | 0.0 | 0.00 | 0.00 | 0.00 | 82 | 1011.3 |
| 20260902035132 | 59 | 198 | 0.0 | 0.0 | 0.00 | 0.00 | 0.00 | 81 | 1011.3 |
| 20260902034631 | 59 | 198 | 0.0 | 0.0 | 0.00 | 0.00 | 0.00 | 81 | 1011.3 |
| 20260902034130 | 60 | 198 | 0.0 | 0.0 | 0.00 | 0.00 | 0.00 | 80 | 1011.3 |
| 20260902033630 | 60 | 198 | 0.0 | 0.0 | 0.00 | 0.00 | 0.00 | 80 | 1011.3 |
| 20260902033125 | 60 | 198 | 0.0 | 0.0 | 0.00 | 0.00 | 0.00 | 80 | 1011.3 |
| 20260902032623 | 61 | 198 | 0.0 | 0.0 | 0.00 | 0.00 | 0.00 | 79 | 1011.3 |
| 20260902032118 | 61 | 198 | 0.0 | 0.0 | 0.00 | 0.00 | 0.00 | 78 | 1011.3 |
| 20260902031613 | 61 | 198 | 0.0 | 0.0 | 0.00 | 0.00 | 0.00 | 78 | 1011.3 |
| 20260902031110 | 62 | 198 | 0.0 | 0.0 | 0.00 | 0.00 | 0.00 | 77 | 1011.3 |
| 20260902030609 | 62 | 198 | 0.0 | 0.0 | 0.00 | 0.00 | 0.00 | 77 | 1011.3 |
| 20260902030104 | 62 | 198 | 0.0 | 0.0 | 0.00 | 0.00 | 0.00 | 77 | 1011.3 |
| 20260902025603 | 62 | 198 | 0.0 | 0.0 | 0.00 | 0.00 | 0.00 | 77 | 1011.3 |
| 20260902025059 | 62 | 198 | 0.0 | 0.9 | 0.00 | 0.00 | 0.00 | 76 | 1011.3 |
| 20260902024554 | 62 | 198 | 0.0 | 0.0 | 0.00 | 0.00 | 0.00 | 76 | 1011.3 |
| 20260902024054 | 62 | 198 | 0.0 | 0.0 | 0.00 | 0.00 | 0.00 | 76 | 1011.3 |
| 20260902023550 | 62 | 198 | 0.0 | 0.0 | 0.00 | 0.00 | 0.00 | 76 | 1011.3 |
| 20260902023045 | 62 | 198 | 0.0 | 0.0 | 0.00 | 0.00 | 0.00 | 76 | 1011.3 |
| 20260902022544 | 62 | 198 | 0.0 | 0.0 | 0.00 | 0.00 | 0.00 | 75 | 1011.3 |
| 20260902022041 | 63 | 198 | 0.0 | 0.0 | 0.00 | 0.00 | 0.00 | 75 | 1011.3 |
| 20260902021536 | 63 | 198 | 0.0 | 0.0 | 0.00 | 0.00 | 0.00 | 75 | 1011.3 |
| 20260902021031 | 63 | 198 | 0.0 | 0.0 | 0.00 | 0.00 | 0.00 | 74 | 1011.3 |
| 20260902020526 | 63 | 198 | 0.0 | 0.0 | 0.00 | 0.00 | 0.00 | 74 | 1011.3 |
| 20260902020022 | 63 | 198 | 0.0 | 0.0 | 0.00 | 0.00 | 0.00 | 74 | 1011.8 |
| 20260902015518 | 63 | 198 | 0.0 | 0.9 | 0.00 | 0.00 | 0.00 | 75 | 1011.3 |
| 20260902015013 | 63 | 198 | 0.0 | 0.0 | 0.00 | 0.00 | 0.00 | 75 | 1011.8 |
| 20260902014510 | 63 | 200 | 0.0 | 0.9 | 0.00 | 0.00 | 0.00 | 75 | 1011.8 |
| 20260902014004 | 63 | 172 | 0.9 | 0.9 | 0.00 | 0.00 | 0.00 | 75 | 1011.8 |
| 20260902013458 | 63 | 94 | 0.9 | 0.9 | 0.00 | 0.00 | 0.00 | 75 | 1011.3 |
| 20260902012953 | 63 | 312 | 0.9 | 1.7 | 0.00 | 0.00 | 0.00 | 75 | 1011.8 |
| 20260902012444 | 63 | 285 | 1.7 | 1.7 | 0.00 | 0.00 | 0.00 | 75 | 1011.8 |
| 20260902011939 | 63 | 95 | 0.0 | 0.0 | 0.00 | 0.00 | 0.00 | 74 | 1011.3 |
| 20260902011435 | 63 | 107 | 0.0 | 0.9 | 0.00 | 0.00 | 0.00 | 74 | 1011.8 |
| 20260902010934 | 63 | 106 | 0.0 | 0.9 | 0.00 | 0.00 | 0.00 | 74 | 1011.8 |
| 20260902010429 | 63 | 289 | 0.9 | 0.9 | 0.00 | 0.00 | 0.00 | 74 | 1011.3 |
| 20260902005928 | 63 | 107 | 0.0 | 0.9 | 0.00 | 0.00 | 0.00 | 74 | 1011.3 |
| 20260902005427 | 63 | 105 | 0.0 | 0.9 | 0.00 | 0.00 | 0.00 | 74 | 1011.8 |
| 20260902004923 | 63 | 132 | 0.9 | 0.9 | 0.00 | 0.00 | 0.00 | 74 | 1011.8 |
| 20260902004422 | 63 | 65 | 1.7 | 2.6 | 0.00 | 0.00 | 0.00 | 74 | 1011.3 |
| 20260902003918 | 63 | 99 | 0.0 | 0.9 | 0.00 | 0.00 | 0.00 | 75 | 1011.8 |
| 20260902003413 | 63 | 102 | 0.0 | 1.7 | 0.00 | 0.00 | 0.00 | 75 | 1011.8 |
| 20260902002908 | 63 | 196 | 0.0 | 0.9 | 0.00 | 0.00 | 0.00 | 75 | 1011.8 |
| 20260902002403 | 63 | 90 | 0.9 | 0.9 | 0.00 | 0.00 | 0.00 | 75 | 1011.3 |
| 20260902001858 | 63 | 286 | 1.7 | 1.7 | 0.00 | 0.00 | 0.00 | 74 | 1011.8 |
| 20260902001353 | 63 | 99 | 0.0 | 0.0 | 0.00 | 0.00 | 0.00 | 75 | 1011.8 |
| 20260902000847 | 63 | 95 | 0.0 | 0.9 | 0.00 | 0.00 | 0.00 | 74 | 1011.8 |
| 20260902000344 | 63 | 73 | 0.0 | 0.9 | 0.00 | 0.00 | 0.00 | 74 | 1011.8 |
| 20260901235837 | 62 | 84 | 0.0 | 0.9 | 0.00 | 0.00 | 0.00 | 75 | 1011.8 |
| 20260901235336 | 62 | 65 | 0.9 | 0.9 | 0.00 | 0.00 | 0.00 | 75 | 1011.8 |
| 20260901234832 | 62 | 94 | 0.0 | 0.9 | 0.00 | 0.00 | 0.00 | 75 | 1011.8 |
| 20260901234326 | 62 | 110 | 0.0 | 0.9 | 0.00 | 0.00 | 0.00 | 75 | 1011.8 |
| 20260901233821 | 63 | 110 | 0.0 | 0.9 | 0.00 | 0.00 | 0.00 | 75 | 1011.8 |
| 20260901233317 | 63 | 288 | 0.9 | 0.9 | 0.00 | 0.00 | 0.00 | 75 | 1011.8 |
| 20260901232812 | 63 | 82 | 0.9 | 0.9 | 0.00 | 0.00 | 0.00 | 74 | 1011.8 |
| 20260901232301 | 63 | 115 | 0.0 | 2.6 | 0.00 | 0.00 | 0.00 | 75 | 1011.8 |
| 20260901231757 | 63 | 58 | 0.9 | 1.7 | 0.00 | 0.00 | 0.00 | 74 | 1011.8 |
| 20260901231248 | 64 | 104 | 0.0 | 3.5 | 0.00 | 0.00 | 0.00 | 74 | 1011.8 |
| 20260901230744 | 64 | 309 | 1.7 | 3.5 | 0.00 | 0.00 | 0.00 | 74 | 1011.3 |
| 20260901230243 | 64 | 103 | 0.0 | 1.7 | 0.00 | 0.00 | 0.00 | 74 | 1011.3 |
| 20260901225738 | 65 | 60 | 0.0 | 1.7 | 0.00 | 0.00 | 0.00 | 73 | 1011.3 |
| 20260901225233 | 64 | 110 | 0.0 | 0.9 | 0.00 | 0.00 | 0.00 | 74 | 1011.3 |
| 20260901224729 | 64 | 82 | 0.0 | 1.7 | 0.00 | 0.00 | 0.00 | 73 | 1011.3 |
| 20260901224225 | 64 | 155 | 0.9 | 1.7 | 0.00 | 0.00 | 0.00 | 73 | 1011.8 |
| 20260901223721 | 64 | 95 | 0.0 | 0.9 | 0.00 | 0.00 | 0.00 | 74 | 1011.8 |
| 20260901223215 | 64 | 87 | 0.9 | 0.9 | 0.00 | 0.00 | 0.00 | 74 | 1011.3 |
| 20260901222711 | 63 | 118 | 0.0 | 1.7 | 0.00 | 0.00 | 0.00 | 75 | 1011.3 |
| 20260901222208 | 63 | 315 | 0.9 | 3.5 | 0.00 | 0.00 | 0.00 | 75 | 1011.8 |
| 20260901221703 | 62 | 109 | 0.0 | 1.7 | 0.00 | 0.00 | 0.00 | 76 | 1011.8 |
| 20260901221159 | 63 | 79 | 0.9 | 3.5 | 0.00 | 0.00 | 0.00 | 76 | 1011.8 |
| 20260901220658 | 64 | 86 | 1.7 | 1.7 | 0.00 | 0.00 | 0.00 | 73 | 1011.8 |
| 20260901220157 | 64 | 109 | 0.0 | 3.5 | 0.00 | 0.00 | 0.00 | 74 | 1011.8 |
| 20260901215655 | 66 | 302 | 2.6 | 3.5 | 0.00 | 0.00 | 0.00 | 72 | 1011.8 |
| 20260901215150 | 66 | 106 | 0.0 | 0.9 | 0.00 | 0.00 | 0.00 | 72 | 1011.8 |
| 20260901214648 | 66 | 96 | 0.9 | 0.9 | 0.00 | 0.00 | 0.00 | 72 | 1012.1 |
| 20260901214143 | 66 | 182 | 0.9 | 1.7 | 0.00 | 0.00 | 0.00 | 73 | 1011.8 |
| 20260901213642 | 67 | 111 | 0.9 | 2.6 | 0.00 | 0.00 | 0.00 | 73 | 1011.8 |
| 20260901213137 | 67 | 106 | 0.0 | 0.9 | 0.00 | 0.00 | 0.00 | 72 | 1011.8 |
| 20260901212637 | 67 | 131 | 0.0 | 0.9 | 0.00 | 0.00 | 0.00 | 72 | 1012.1 |
| 20260901212133 | 67 | 149 | 2.6 | 2.6 | 0.00 | 0.00 | 0.00 | 72 | 1012.1 |
| 20260901211628 | 67 | 118 | 0.9 | 2.6 | 0.00 | 0.00 | 0.00 | 72 | 1012.1 |
| 20260901211124 | 67 | 110 | 0.0 | 2.6 | 0.00 | 0.00 | 0.00 | 73 | 1012.1 |
| 20260901210620 | 68 | 105 | 0.9 | 0.9 | 0.00 | 0.00 | 0.00 | 70 | 1012.1 |
| 20260901210116 | 67 | 197 | 4.3 | 6.1 | 0.00 | 0.00 | 0.00 | 72 | 1012.1 |
| 20260901205611 | 67 | 84 | 0.9 | 2.6 | 0.00 | 0.00 | 0.00 | 73 | 1012.1 |
| 20260901205105 | 67 | 93 | 0.9 | 5.2 | 0.00 | 0.00 | 0.00 | 73 | 1012.1 |
| 20260901204602 | 68 | 187 | 2.6 | 3.5 | 0.00 | 0.00 | 0.00 | 71 | 1012.1 |
| 20260901204056 | 68 | 157 | 1.7 | 3.5 | 0.00 | 0.00 | 0.00 | 70 | 1012.1 |
| 20260901203550 | 68 | 121 | 1.7 | 1.7 | 0.00 | 0.00 | 0.00 | 70 | 1012.1 |
| 20260901203046 | 68 | 99 | 0.0 | 1.7 | 0.00 | 0.00 | 0.00 | 72 | 1012.1 |
| 20260901202545 | 67 | 130 | 1.7 | 3.5 | 0.00 | 0.00 | 0.00 | 73 | 1012.1 |
| 20260901202042 | 68 | 129 | 0.9 | 2.6 | 0.00 | 0.00 | 0.00 | 71 | 1012.1 |
| 20260901201537 | 66 | 135 | 1.7 | 2.6 | 0.00 | 0.00 | 0.00 | 74 | 1012.1 |
| 20260901201036 | 67 | 109 | 1.7 | 5.2 | 0.00 | 0.00 | 0.00 | 72 | 1012.1 |
| 20260901200536 | 68 | 113 | 1.7 | 3.5 | 0.00 | 0.00 | 0.00 | 71 | 1012.1 |
| 20260901200031 | 68 | 90 | 1.7 | 2.6 | 0.00 | 0.00 | 0.00 | 71 | 1012.1 |
| 20260901195528 | 69 | 122 | 0.9 | 1.7 | 0.00 | 0.00 | 0.00 | 70 | 1011.8 |
| 20260901195023 | 68 | 81 | 0.9 | 2.6 | 0.00 | 0.00 | 0.00 | 72 | 1012.1 |
| 20260901194518 | 68 | 167 | 2.6 | 3.5 | 0.00 | 0.00 | 0.00 | 72 | 1012.1 |
| 20260901194014 | 68 | 108 | 1.7 | 3.5 | 0.00 | 0.00 | 0.00 | 70 | 1012.1 |
| 20260901193513 | 68 | 91 | 0.9 | 1.7 | 0.00 | 0.00 | 0.00 | 71 | 1012.1 |
| 20260901193014 | 67 | 91 | 0.9 | 1.7 | 0.00 | 0.00 | 0.00 | 73 | 1012.1 |
| 20260901192509 | 67 | 108 | 0.9 | 7.0 | 0.00 | 0.00 | 0.00 | 72 | 1012.1 |
| 20260901192005 | 67 | 103 | 0.9 | 1.7 | 0.00 | 0.00 | 0.00 | 72 | 1012.1 |
| 20260901191500 | 67 | 81 | 1.7 | 2.6 | 0.00 | 0.00 | 0.00 | 72 | 1012.1 |
| 20260901190955 | 67 | 96 | 0.9 | 7.0 | 0.00 | 0.00 | 0.00 | 74 | 1011.8 |
| 20260901190451 | 67 | 108 | 1.7 | 1.7 | 0.00 | 0.00 | 0.00 | 72 | 1012.1 |
| 20260901185949 | 66 | 99 | 0.9 | 1.7 | 0.00 | 0.00 | 0.00 | 71 | 1012.1 |
| 20260901185444 | 65 | 116 | 0.9 | 0.9 | 0.00 | 0.00 | 0.00 | 73 | 1012.1 |
| 20260901184943 | 66 | 61 | 0.9 | 1.7 | 0.00 | 0.00 | 0.00 | 73 | 1012.1 |
| 20260901184439 | 65 | 74 | 0.9 | 2.6 | 0.00 | 0.00 | 0.00 | 72 | 1012.1 |
| 20260901183934 | 63 | 94 | 0.9 | 1.7 | 0.00 | 0.00 | 0.00 | 75 | 1012.1 |
| 20260901183433 | 63 | 99 | 0.0 | 3.5 | 0.00 | 0.00 | 0.00 | 76 | 1012.1 |
| 20260901182929 | 64 | 38 | 1.7 | 1.7 | 0.00 | 0.00 | 0.00 | 75 | 1012.1 |
| 20260901182424 | 64 | 100 | 0.0 | 1.7 | 0.00 | 0.00 | 0.00 | 74 | 1012.1 |
| 20260901181914 | 64 | 102 | 0.0 | 0.9 | 0.00 | 0.00 | 0.00 | 75 | 1012.1 |
| 20260901181408 | 62 | 108 | 0.0 | 0.9 | 0.00 | 0.00 | 0.00 | 77 | 1012.1 |
| 20260901180907 | 62 | 93 | 0.9 | 1.7 | 0.00 | 0.00 | 0.00 | 78 | 1012.1 |
| 20260901180401 | 61 | 18 | 0.9 | 1.7 | 0.00 | 0.00 | 0.00 | 78 | 1012.1 |
| 20260901175900 | 61 | 136 | 0.0 | 1.7 | 0.00 | 0.00 | 0.00 | 78 | 1012.1 |
| 20260901175354 | 61 | 105 | 0.0 | 0.9 | 0.00 | 0.00 | 0.00 | 78 | 1012.1 |
| 20260901174849 | 61 | 110 | 0.0 | 0.9 | 0.00 | 0.00 | 0.00 | 79 | 1012.1 |
| 20260901174345 | 61 | 116 | 0.9 | 1.7 | 0.00 | 0.00 | 0.00 | 79 | 1012.1 |
| 20260901173841 | 61 | 116 | 0.0 | 0.0 | 0.00 | 0.00 | 0.00 | 79 | 1012.1 |
| 20260901173335 | 61 | 87 | 0.0 | 1.7 | 0.00 | 0.00 | 0.00 | 79 | 1012.1 |
| 20260901172832 | 61 | 172 | 0.0 | 0.9 | 0.00 | 0.00 | 0.00 | 79 | 1011.8 |
| 20260901172331 | 61 | 121 | 0.0 | 1.7 | 0.00 | 0.00 | 0.00 | 80 | 1011.8 |
| 20260901171829 | 62 | 95 | 1.7 | 2.6 | 0.00 | 0.00 | 0.00 | 82 | 1011.8 |
| 20260901171329 | 61 | 110 | 2.6 | 5.2 | 0.00 | 0.00 | 0.00 | 83 | 1011.8 |
| 20260901170828 | 60 | 102 | 0.9 | 3.5 | 0.00 | 0.00 | 0.00 | 85 | 1011.8 |
| 20260901170322 | 60 | 163 | 6.1 | 7.0 | 0.00 | 0.00 | 0.00 | 84 | 1011.8 |
| 20260901165816 | 60 | 189 | 2.6 | 5.2 | 0.00 | 0.00 | 0.00 | 84 | 1011.8 |
| 20260901165310 | 60 | 177 | 0.9 | 3.5 | 0.00 | 0.00 | 0.00 | 85 | 1011.3 |
| 20260901164807 | 60 | 179 | 1.7 | 3.5 | 0.00 | 0.00 | 0.00 | 86 | 1011.8 |
| 20260901164302 | 59 | 218 | 4.3 | 6.1 | 0.00 | 0.00 | 0.00 | 86 | 1011.8 |
| 20260901163757 | 59 | 169 | 0.9 | 3.5 | 0.00 | 0.00 | 0.00 | 88 | 1011.8 |
| 20260901163256 | 58 | 207 | 2.6 | 5.2 | 0.00 | 0.00 | 0.00 | 89 | 1011.8 |
| 20260901162751 | 58 | 180 | 5.2 | 6.1 | 0.00 | 0.00 | 0.00 | 89 | 1011.8 |
| 20260901162251 | 57 | 159 | 1.7 | 3.5 | 0.00 | 0.00 | 0.00 | 90 | 1011.8 |
| 20260901161749 | 57 | 112 | 2.6 | 3.5 | 0.00 | 0.00 | 0.00 | 90 | 1011.8 |
| 20260901161244 | 57 | 150 | 2.6 | 3.5 | 0.00 | 0.00 | 0.00 | 90 | 1011.8 |
| 20260901160740 | 57 | 171 | 2.6 | 7.0 | 0.00 | 0.00 | 0.00 | 91 | 1011.8 |
| 20260901160236 | 57 | 222 | 3.5 | 8.7 | 0.00 | 0.00 | 0.00 | 91 | 1011.8 |
| 20260901155735 | 57 | 170 | 1.7 | 5.2 | 0.00 | 0.00 | 0.00 | 91 | 1011.8 |
| 20260901155231 | 56 | 149 | 1.7 | 7.0 | 0.00 | 0.00 | 0.00 | 91 | 1011.8 |
| 20260901154726 | 56 | 163 | 4.3 | 6.1 | 0.00 | 0.00 | 0.00 | 91 | 1011.3 |
| 20260901154221 | 56 | 155 | 3.5 | 5.2 | 0.00 | 0.00 | 0.00 | 91 | 1011.8 |
| 20260901153716 | 56 | 98 | 0.9 | 5.2 | 0.00 | 0.00 | 0.00 | 91 | 1011.8 |
| 20260901153215 | 56 | 157 | 0.9 | 3.5 | 0.00 | 0.00 | 0.00 | 91 | 1011.8 |
| 20260901152709 | 56 | 170 | 1.7 | 6.1 | 0.00 | 0.00 | 0.00 | 91 | 1011.8 |
| 20260901152203 | 56 | 116 | 0.9 | 7.0 | 0.00 | 0.00 | 0.00 | 91 | 1011.3 |
| 20260901151659 | 56 | 180 | 0.9 | 6.1 | 0.00 | 0.00 | 0.00 | 91 | 1011.8 |
| 20260901151158 | 56 | 140 | 2.6 | 7.0 | 0.00 | 0.00 | 0.00 | 91 | 1011.8 |
| 20260901150658 | 56 | 184 | 4.3 | 5.2 | 0.00 | 0.00 | 0.00 | 91 | 1011.3 |
| 20260901150156 | 56 | 177 | 4.3 | 6.1 | 0.00 | 0.00 | 0.00 | 91 | 1011.3 |
| 20260901145654 | 56 | 98 | 2.6 | 7.0 | 0.00 | 0.00 | 0.00 | 91 | 1011.3 |
| 20260901145153 | 55 | 166 | 3.5 | 6.1 | 0.00 | 0.00 | 0.00 | 91 | 1011.3 |
| 20260901144649 | 55 | 120 | 4.3 | 7.8 | 0.00 | 0.00 | 0.00 | 91 | 1011.3 |
| 20260901144143 | 55 | 150 | 3.5 | 7.8 | 0.00 | 0.00 | 0.00 | 91 | 1011.3 |
| 20260901143639 | 54 | 91 | 2.6 | 5.2 | 0.00 | 0.00 | 0.00 | 91 | 1011.3 |
| 20260901143135 | 54 | 164 | 4.3 | 5.2 | 0.00 | 0.00 | 0.00 | 91 | 1011.3 |
| 20260901142631 | 54 | 158 | 1.7 | 6.1 | 0.00 | 0.00 | 0.00 | 91 | 1011.3 |
| 20260901142130 | 54 | 121 | 2.6 | 3.5 | 0.00 | 0.00 | 0.00 | 90 | 1011.3 |
| 20260901141626 | 54 | 112 | 3.5 | 5.2 | 0.00 | 0.00 | 0.00 | 90 | 1011.3 |
| 20260901141126 | 54 | 128 | 2.6 | 3.5 | 0.00 | 0.00 | 0.00 | 90 | 1011.3 |
| 20260901140625 | 54 | 179 | 1.7 | 3.5 | 0.00 | 0.00 | 0.00 | 90 | 1011.3 |
| 20260901140124 | 54 | 122 | 0.9 | 1.7 | 0.00 | 0.00 | 0.00 | 90 | 1011.3 |
| 20260901135624 | 54 | 127 | 1.7 | 2.6 | 0.00 | 0.00 | 0.00 | 90 | 1011.3 |
| 20260901135119 | 54 | 119 | 0.9 | 1.7 | 0.00 | 0.00 | 0.00 | 90 | 1011.3 |
| 20260901134615 | 54 | 137 | 0.9 | 1.7 | 0.00 | 0.00 | 0.00 | 91 | 1011.3 |
| 20260901134110 | 53 | 162 | 1.7 | 2.6 | 0.00 | 0.00 | 0.00 | 91 | 1011.3 |
| 20260901133609 | 53 | 148 | 0.9 | 1.7 | 0.00 | 0.00 | 0.00 | 91 | 1011.3 |
| 20260901133107 | 53 | 172 | 1.7 | 2.6 | 0.00 | 0.00 | 0.00 | 91 | 1011.3 |
| 20260901132602 | 53 | 136 | 1.7 | 2.6 | 0.00 | 0.00 | 0.00 | 91 | 1011.0 |
| 20260901132056 | 53 | 129 | 0.9 | 0.9 | 0.00 | 0.00 | 0.00 | 91 | 1011.3 |
| 20260901131550 | 53 | 149 | 0.9 | 1.7 | 0.00 | 0.00 | 0.00 | 91 | 1011.0 |
| 20260901131046 | 53 | 123 | 0.9 | 1.7 | 0.00 | 0.00 | 0.00 | 91 | 1011.3 |